#timestamp,LO_Frequency,Hit,StdDev 
1579644015.7,286047005.2,N
1579644035.6,286047006.8,N
1579644055.4,286047006.5,N
1579644075.2,286047006.6,N
1579644095.1,286047006.1,N
1579644096.0,286047006.1,N
1579644115.8,286047008.9,N
1579644135.7,286047009.1,N
1579644155.5,286047010.1,N
1579644175.3,286047009.5,N
1579644195.2,286047012.2,Y
1579644215.0,286047007.5,P
1579644215.9,286047007.5,P
1579644235.8,286047005.8,P
1579644255.6,286047005.6,Y
1579644275.4,286046999.4,P
1579644295.3,286046997.3,N
1579644315.1,286046997.5,N
1579644335.8,286046996.8,N
1579644355.7,286046997.7,N
1579644375.5,286046997.2,N
1579644395.4,286046997.1,N
1579644415.2,286046997.7,N
1579644435.0,286046999.1,N
1579644435.9,286046999.1,N
1579644455.8,286046999.4,N
1579644475.6,286046998.9,N
1579644495.4,286046999.0,N
1579644515.3,286046999.0,N
1579644535.1,286046999.3,N
1579644555.9,286047001.2,N
1579644575.7,286047002.3,N
1579644595.5,286047000.7,N
1579644615.4,286046998.9,N
1579644635.2,286046998.2,N
1579644655.0,286046997.1,N
1579644656.0,286046997.1,N
1579644675.8,286046998.0,N
1579644695.6,286046997.0,N
1579644715.5,286046998.9,N
1579644735.3,286046999.0,N
1579644755.1,286047000.9,N
1579644775.9,286047000.1,N
1579644795.7,286047003.9,N
1579644815.6,286047003.5,N
1579644835.4,286047003.6,N
1579644855.2,286047002.3,N
1579644875.1,286047002.2,N
1579644876.0,286047002.2,N
1579644895.8,286047002.7,N
1579644915.7,286047002.4,N
1579644935.5,286047002.3,N
1579644955.3,286047001.6,N
1579644975.2,286047002.3,N
1579644995.0,286047002.0,N
1579644995.9,286047002.0,N
1579645015.7,286047004.1,N
1579645035.6,286047001.7,N
1579645055.4,286047001.8,N
1579645075.3,286047004.3,N
1579645095.1,286047001.5,N
1579645115.9,286047004.4,N
1579645135.7,286047003.3,N
1579645155.5,286047004.3,N
1579645175.4,286047003.4,N
1579645195.2,286047003.3,N
1579645215.0,286047004.2,N
1579645215.9,286047004.2,N
1579645235.8,286047004.1,N
1579645255.6,286047004.2,N
1579645275.5,286047001.4,N
1579645295.3,286047001.4,N
1579645315.1,286047004.0,Y
1579645335.9,286047001.2,P
1579645355.7,286047000.4,N
1579645375.6,286047004.1,P
1579645395.4,286047003.6,N
1579645415.2,286047006.7,Y
1579645435.1,286046999.7,P
1579645436.0,286046999.7,N
1579645455.8,286047001.2,N
1579645475.6,286046998.1,N
1579645495.5,286047000.9,N
1579645515.3,286046996.5,N
1579645535.2,286046997.7,N
1579645555.9,286046996.9,N
1579645575.7,286046997.4,N
1579645595.6,286046995.0,N
1579645615.4,286046998.7,N
1579645635.2,286046996.7,N
1579645655.1,286046999.2,N
1579645656.0,286046999.2,N
1579645675.8,286046999.2,N
1579645695.7,286047000.9,N
1579645715.5,286046998.4,N
1579645735.3,286046997.2,N
1579645755.2,286046997.1,N
1579645775.0,286046995.2,N
1579645775.9,286046995.2,N
1579645795.8,286046996.8,N
1579645815.6,286046995.1,N
1579645835.4,286046993.6,Y
1579645855.3,286046995.9,P
1579645875.1,286046996.6,P
1579645895.9,286046998.8,N
1579645915.7,286047000.4,N
1579645935.5,286047001.4,N
1579645955.4,286047004.0,N
1579645975.2,286047005.6,N
1579645995.1,286047003.1,N
1579645996.0,286047003.1,N
1579646015.8,286047004.3,N
1579646035.6,286047001.8,N
1579646055.5,286047001.9,N
1579646075.3,286047003.8,N
1579646095.1,286047004.1,N
1579646115.9,286047001.4,N
1579646135.7,286047000.3,N
1579646155.6,286047002.5,N
1579646175.4,286047003.3,N
1579646195.2,286047003.5,N
1579646215.1,286047003.3,N
1579646216.0,286047003.3,N
1579646235.8,286047004.0,N
1579646255.7,286047003.3,N
1579646275.5,286047005.8,N
1579646295.3,286047007.6,Y
1579646315.2,286047004.4,P
1579646335.0,286047004.2,P
1579646335.9,286047004.2,P
1579646355.8,286047002.0,N
1579646375.6,286047002.1,N
1579646395.4,286047002.0,N
1579646415.3,286047001.9,N
1579646435.1,286047002.1,N
1579646455.9,286047000.0,N
1579646475.7,286046999.1,N
1579646495.5,286046999.4,N
1579646515.4,286047001.1,N
1579646535.2,286046999.7,N
1579646555.0,286047002.4,N
1579646556.0,286047002.4,N
1579646575.8,286047002.6,N
1579646595.6,286046999.9,N
1579646615.5,286047001.4,N
1579646635.3,286047001.5,N
1579646655.1,286047002.1,N
1579646675.9,286047002.3,N
1579646695.7,286047002.7,N
1579646715.6,286047002.3,N
1579646735.4,286047002.1,N
1579646755.2,286047001.6,N
1579646775.1,286047004.2,Y
1579646776.0,286047004.2,P
1579646795.8,286047000.1,N
1579646815.7,286047000.1,N
1579646835.5,286047001.0,N
1579646855.3,286047002.1,N
1579646875.2,286047001.3,N
1579646895.0,286047003.2,N
1579646895.9,286047003.2,N
1579646915.8,286047004.4,Y
1579646935.6,286047001.2,P
1579646955.4,286047000.9,N
1579646975.3,286046998.1,P
1579646995.1,286046999.0,N
1579647015.9,286046998.7,N
1579647035.7,286046999.0,N
1579647055.5,286047000.8,N
1579647075.4,286047001.2,N
1579647095.2,286046999.6,N
1579647115.1,286046999.3,N
1579647116.0,286046999.3,N
1579647135.8,286046998.4,N
1579647155.6,286046998.7,N
1579647175.5,286046999.6,N
1579647195.3,286047000.9,N
1579647215.1,286047002.8,N
1579647235.9,286046999.8,N
1579647255.7,286047002.3,N
1579647275.6,286046999.7,N
1579647295.4,286047002.4,N
1579647315.2,286047001.0,N
1579647335.1,286046998.7,N
1579647336.0,286046998.7,N
1579647355.8,286046998.7,N
1579647375.7,286046998.8,N
1579647395.5,286047001.1,N
1579647415.3,286047000.9,N
1579647435.2,286046999.4,N
1579647455.0,286047001.1,N
1579647455.9,286047001.1,N
1579647475.8,286047001.5,N
1579647495.6,286047004.0,Y
1579647515.4,286047005.4,P
1579647535.3,286047007.1,N
1579647555.1,286047003.1,N
1579647575.9,286047001.8,N
1579647595.7,286047003.7,N
